Regional Weather Roundup
Issued by NWS Memphis, TN

Home | Current Version | Previous Version | Text Only | Print | Product List | Glossary On
Versions: 1 2 3 4 5 6 7 8 9 10 11 12 13 14 15 16 17 18 19 20 21 22 23 24 25 26 27 28 29 30 31 32 33 34 35 36 37 38 39 40 41 42 43 44 45 46 47 48 49 50
000
ASUS44 KMEG 290010
RWRMEG
MEMPHIS CWA HOURLY WEATHER ROUNDUP
NATIONAL WEATHER SERVICE MEMPHIS TN
700 PM CDT SAT MAY 28 2016

...WEST TENNESSEE...

CITY           SKY/WX    TMP DP  RH WIND       PRES   REMARKS
MEMPHIS INTL   PTSUNNY   83  69  62 S7        30.02R
6HR MIN TEMP:  82; 6HR MAX TEMP:  85;

NWS MEMPHIS      N/A     82 N/A N/A MISG        N/A
JACKSON        CLOUDY    77  68  73 SW6       30.04R
6HR MIN TEMP:  77; 6HR MAX TEMP:  86; 6HR PCP: TRACE;

LEXINGTON      SUNNY     81  64  57 S5        30.04R
DYERSBURG      MOSUNNY   82  66  57 S6        30.01S
6HR MIN TEMP:  81; 6HR MAX TEMP:  84;

UNION CITY     MOSUNNY   81  70  69 S7        30.02R
PARIS          SUNNY     79  66  65 SW5       30.04R


...EASTERN ARKANSAS...

CITY           SKY/WX    TMP DP  RH WIND       PRES   REMARKS
JONESBORO      CLOUDY    81  69  67 SW12      30.00R
6HR MIN TEMP:  81; 6HR MAX TEMP:  82;

WEST MEMPHIS   CLOUDY    82  70  66 S6        30.00S
6HR MIN TEMP:  81; 6HR MAX TEMP:  82;

BATESVILLE     SUNNY     81  66  61 SE7       29.99S
6HR MIN TEMP:  81; 6HR MAX TEMP:  82;

NEWPORT        MOSUNNY   83  69  62 S8        30.00S
6HR MIN TEMP:  82; 6HR MAX TEMP:  85;

WALNUT RIDGE   SUNNY     81  66  61 S12       29.99S
6HR MIN TEMP:  81; 6HR MAX TEMP:  82;

BLYTHEVILLE    MOSUNNY   82  70  66 S7        30.01S
6HR MIN TEMP:  81; 6HR MAX TEMP:  84;

SEARCY         SUNNY     81  70  69 S3        30.01R
6HR MIN TEMP:  80; 6HR MAX TEMP:  84;

STUTTGART      MOSUNNY   82  63  51 S7        30.00S
6HR MIN TEMP:  81; 6HR MAX TEMP:  84;

PINE BLUFF     SUNNY     81  67  62 S6        30.00R
6HR MIN TEMP:  78; 6HR MAX TEMP:  83;

MONTICELLO     SUNNY     82  69  64 S7        30.01R
6HR MIN TEMP:  80; 6HR MAX TEMP:  84;



...NORTH MISSISSIPPI...

CITY           SKY/WX    TMP DP  RH WIND       PRES   REMARKS
TUPELO         LGT RAIN  74  70  87 CALM      30.03S
6HR MIN TEMP:  74; 6HR MAX TEMP:  89; 6HR PCP:  0.10;

OXFORD         CLOUDY    72  66  83 SE3       30.05S
BATESVILLE     RAIN      74  70  85 S3        30.03R
6HR MIN TEMP:  74; 6HR MAX TEMP:  83; 6HR PCP:  0.71;

OLIVE BRANCH   PTSUNNY   79  73  83 SE6       30.03R
TUNICA         MOSUNNY   81  70  69 S6        30.02R
CLARKSDALE     MOSUNNY   82  70  65 SW5       30.01R
CORINTH        CLOUDY    79  66  65 SW8       30.04R
GREENWOOD      MOSUNNY   83  61  47 SW7       30.02R
6HR MIN TEMP:  82; 6HR MAX TEMP:  86;

COLUMBUS       CLOUDY    83  67  59 SE5       30.03R
6HR MIN TEMP:  83; 6HR MAX TEMP:  88;

STARKVILLE     CLOUDY    79  66  65 CALM      30.04R
GOLDEN TRIANGL PTSUNNY   82  64  54 S7        30.04R


...SOUTHEAST MISSOURI...

CITY           SKY/WX    TMP DP  RH WIND       PRES   REMARKS
KENNETT        MOSUNNY   81  72  74 S8        29.99S
WEST PLAINS    MOSUNNY   78  65  63 S12       29.98S
6HR MIN TEMP:  78; 6HR MAX TEMP:  82;

POPLAR BLUFF   CLOUDY    80  70  71 S7        29.98S
6HR MIN TEMP:  79; 6HR MAX TEMP:  82;

CAPE GIRARDEAU MOSUNNY   78  69  73 S7        29.99R
6HR MIN TEMP:  78; 6HR MAX TEMP:  83;



...NORTHWEST ALABAMA...

CITY           SKY/WX    TMP DP  RH WIND       PRES   REMARKS
MUSCLE SHOALS  CLOUDY    80  63  55 S6        30.07S
6HR MIN TEMP:  80; 6HR MAX TEMP:  88;



...MIDDLE TENNESSEE...

CITY           SKY/WX    TMP DP  RH WIND       PRES   REMARKS
NASHVILLE      CLOUDY    80  60  50 S6        30.07S
6HR MIN TEMP:  79; 6HR MAX TEMP:  83;

CLARKSVILLE    MOSUNNY   79  67  66 S5        30.05R
6HR MIN TEMP:  78; 6HR MAX TEMP:  82;

COLUMBIA       CLEAR     81  70  69 S7        30.07R


...WESTERN KENTUCKY...

CITY           SKY/WX    TMP DP  RH WIND       PRES   REMARKS
PADUCAH        CLOUDY    81  66  60 S5        30.00S
6HR MIN TEMP:  80; 6HR MAX TEMP:  84;

FORT CAMPBELL  LGT RAIN  77  70  78 S5        30.05R
                                      6HR PCP:  0.07;



...CENTRAL ARKANSAS...

CITY           SKY/WX    TMP DP  RH WIND       PRES   REMARKS
LITTLE ROCK    MOSUNNY   82  65  56 S8        29.99S
6HR MIN TEMP:  81; 6HR MAX TEMP:  85;



SKY/WX REPORTED AS FAIR MEANS FEW OR NO CLOUDS BELOW
12 THOUSAND FEET.





USA.gov is the U.S. government's official web portal to all federal, state and local government web resources and services.